Total_Precipitation_Accumulation
1.41 1.53 1.48 1.43 1.44 1.42 1.69 1.91 2.05 1.96 1.90 1.86 1.71 1.64 1.70 1.74 1.72 1.47 1.32 1.30 1.14 1.03 0.99 0.95 0.94 0.98 1.02 1.07 1.13 1.20 1.30 1.46 1.63 1.79 2.02 2.36 2.75 3.13
1.58 1.59 1.56 1.53 1.62 1.54 1.66 1.86 2.02 2.19 2.08 1.75 1.63 1.57 1.52 1.34 1.36 1.24 1.19 1.30 1.16 1.03 0.97 0.95 0.95 0.95 0.93 0.93 0.94 0.97 1.00 1.03 1.07 1.13 1.24 1.42 1.68 2.06
1.79 1.78 1.83 1.90 1.86 1.77 1.83 1.86 1.94 2.16 2.14 1.76 1.71 1.71 1.58 1.38 1.25 1.16 1.10 1.18 1.21 1.28 1.12 1.00 0.91 0.85 0.83 0.84 0.86 0.89 0.92 0.96 1.01 1.03 1.04 1.07 1.10 1.22
1.88 2.12 2.09 2.07 1.97 1.83 1.90 1.86 1.90 2.15 2.06 1.81 1.84 1.85 1.78 1.55 1.44 1.30 1.13 1.12 1.19 1.36 1.16 1.02 0.95 0.89 0.86 0.86 0.87 0.87 0.86 0.88 0.91 0.91 0.90 0.90 0.91 0.94
1.97 2.05 2.09 2.21 2.09 1.99 1.92 1.88 1.93 2.06 2.13 1.97 1.92 2.06 2.01 1.77 1.63 1.40 1.21 1.24 1.10 1.23 1.18 1.07 1.05 1.00 0.95 0.89 0.85 0.83 0.80 0.79 0.79 0.82 0.85 0.87 0.88 0.86
2.01 1.92 1.99 2.21 2.26 2.21 2.05 1.98 2.05 2.18 2.22 2.17 2.12 2.21 2.23 2.15 1.95 1.65 1.48 1.34 1.19 1.11 1.19 1.10 1.07 1.03 0.96 0.88 0.83 0.81 0.81 0.78 0.76 0.74 0.74 0.73 0.72 0.72
1.83 1.73 1.71 1.89 2.10 2.20 2.03 2.02 2.13 2.14 2.14 2.17 2.18 2.23 2.26 2.37 2.21 1.90 1.67 1.53 1.32 1.15 1.18 1.12 1.07 0.99 0.99 1.00 0.92 0.84 0.78 0.74 0.71 0.69 0.68 0.67 0.65 0.63
1.80 1.74 1.62 1.57 1.60 1.76 1.91 2.04 2.17 2.14 2.13 2.27 2.42 2.46 2.44 2.42 2.38 2.17 1.90 1.67 1.52 1.34 1.37 1.35 1.27 1.20 1.04 0.94 0.97 0.88 0.78 0.74 0.72 0.67 0.62 0.60 0.60 0.59
1.67 1.66 1.42 1.29 1.39 1.34 1.52 1.66 1.80 1.88 1.91 2.06 2.22 2.32 2.42 2.52 2.53 2.30 2.11 1.92 1.67 1.46 1.42 1.31 1.22 1.23 1.12 1.05 1.10 0.95 0.86 0.81 0.77 0.74 0.70 0.64 0.60 0.59
1.47 1.45 1.41 1.35 1.34 1.39 1.40 1.39 1.38 1.46 1.57 1.58 1.72 1.95 2.19 2.38 2.51 2.40 2.27 1.96 1.68 1.48 1.43 1.30 1.14 1.10 1.05 1.06 1.14 1.04 0.93 0.86 0.77 0.70 0.68 0.64 0.59 0.56
1.46 1.48 1.48 1.42 1.52 1.39 1.35 1.41 1.43 1.46 1.49 1.54 1.55 1.70 1.95 2.13 2.21 2.25 2.21 2.04 1.78 1.53 1.43 1.39 1.18 1.08 1.03 0.94 0.94 0.99 0.89 0.83 0.79 0.71 0.64 0.62 0.63 0.61
1.51 1.51 1.50 1.38 1.37 1.22 1.18 1.31 1.34 1.38 1.42 1.43 1.44 1.47 1.54 1.84 2.13 1.96 1.94 1.94 1.74 1.47 1.22 1.28 1.26 1.25 1.15 0.90 0.79 0.79 0.75 0.77 0.80 0.78 0.74 0.68 0.70 0.63
1.56 1.51 1.48 1.41 1.14 1.06 1.02 1.05 1.10 1.14 1.25 1.24 1.19 1.20 1.29 1.45 1.68 1.75 1.70 1.64 1.59 1.38 1.19 1.17 1.13 1.14 1.08 0.88 0.73 0.68 0.66 0.64 0.64 0.70 0.75 0.75 0.70 0.65
1.45 1.46 1.48 1.34 1.07 0.94 0.82 0.80 0.79 0.75 0.84 0.97 1.03 1.05 1.09 1.20 1.34 1.49 1.55 1.55 1.44 1.31 1.21 1.17 1.04 0.98 0.93 0.83 0.71 0.62 0.63 0.64 0.63 0.61 0.64 0.78 0.77 0.74
1.24 1.40 1.32 1.14 0.96 0.82 0.76 0.71 0.65 0.60 0.70 0.83 0.91 0.94 0.96 1.04 1.26 1.54 1.71 1.75 1.65 1.41 1.28 1.21 1.13 1.03 1.01 0.89 0.75 0.66 0.62 0.60 0.60 0.65 0.65 0.68 0.72 0.73
1.03 1.13 1.14 1.12 1.07 0.99 0.88 0.77 0.67 0.70 0.78 0.86 0.97 1.07 1.16 1.23 1.32 1.46 1.65 1.70 1.70 1.52 1.30 1.24 1.19 1.19 1.10 0.92 0.83 0.74 0.65 0.59 0.57 0.63 0.72 0.72 0.77 0.82
1.03 1.08 1.11 1.20 1.24 1.25 1.20 1.11 1.02 0.98 0.93 0.92 1.05 1.17 1.21 1.24 1.27 1.37 1.52 1.54 1.45 1.34 1.20 1.11 1.15 1.15 1.10 1.01 0.89 0.74 0.66 0.59 0.57 0.63 0.77 0.80 0.77 0.78
0.93 1.06 1.22 1.32 1.41 1.42 1.41 1.30 1.16 1.05 0.98 1.00 1.07 1.16 1.21 1.22 1.25 1.36 1.46 1.46 1.34 1.22 1.19 1.05 1.06 1.19 1.18 1.04 0.87 0.78 0.72 0.66 0.63 0.70 0.77 0.80 0.77 0.72
0.75 0.92 1.10 1.19 1.28 1.29 1.28 1.22 1.18 1.13 1.11 1.14 1.20 1.25 1.30 1.29 1.29 1.31 1.39 1.42 1.33 1.21 1.17 1.16 1.09 1.11 1.09 0.87 0.66 0.61 0.68 0.69 0.74 0.79 0.82 0.82 0.76 0.68
0.61 0.73 0.87 0.99 1.11 1.23 1.30 1.27 1.25 1.24 1.18 1.15 1.22 1.24 1.27 1.31 1.29 1.25 1.31 1.38 1.35 1.28 1.22 1.16 1.10 1.01 0.95 0.88 0.76 0.65 0.66 0.77 0.86 0.87 0.85 0.86 0.82 0.79
0.65 0.68 0.74 0.87 1.04 1.21 1.30 1.35 1.35 1.29 1.19 1.17 1.18 1.21 1.23 1.27 1.25 1.20 1.25 1.36 1.37 1.30 1.15 0.98 0.91 1.03 1.12 1.22 1.08 0.77 0.68 0.73 0.84 0.93 0.97 1.01 0.97 0.95
0.73 0.75 0.77 0.86 1.01 1.17 1.27 1.30 1.34 1.29 1.23 1.20 1.18 1.22 1.24 1.25 1.23 1.19 1.20 1.28 1.26 1.21 1.12 1.06 1.16 1.33 1.39 1.31 1.08 0.89 0.83 0.81 0.84 0.89 0.90 0.92 0.95 0.90
0.82 0.78 0.77 0.84 0.96 1.10 1.18 1.22 1.27 1.25 1.20 1.19 1.17 1.21 1.25 1.26 1.33 1.33 1.28 1.29 1.30 1.34 1.42 1.39 1.36 1.38 1.37 1.31 1.20 1.07 0.95 0.90 0.92 0.94 0.84 0.78 0.75 0.72